TimeCST,TemperatureF,Dew PointF,Humidity,Sea Level PressureIn,VisibilityMPH,Wind Direction,Wind SpeedMPH,Gust SpeedMPH,PrecipitationIn,Events,Conditions,WindDirDegrees,DateUTC
12:15 AM,34.7,32.2,91,29.67,7.0,WNW,12.7,-,N/A,,Overcast,290,2012-12-16 06:15:00
12:55 AM,34.3,32.2,92,29.66,5.0,WNW,11.5,-,N/A,,Overcast,300,2012-12-16 06:55:00
1:15 AM,34.2,32.0,92,29.67,5.0,WNW,15.0,19.6,N/A,,Overcast,290,2012-12-16 07:15:00
1:55 AM,33.8,32.0,93,29.68,5.0,WNW,10.4,-,N/A,,Overcast,290,2012-12-16 07:55:00
2:15 AM,33.8,32.0,93,29.69,5.0,WNW,10.4,-,N/A,,Overcast,300,2012-12-16 08:15:00
2:55 AM,33.4,32.0,94,29.70,5.0,WNW,10.4,-,N/A,,Overcast,290,2012-12-16 08:55:00
3:15 AM,33.4,32.0,94,29.69,4.0,WNW,10.4,-,N/A,,Overcast,300,2012-12-16 09:15:00
3:35 AM,33.3,31.8,94,29.69,5.0,NW,12.7,-,N/A,,Overcast,310,2012-12-16 09:35:00
3:55 AM,33.1,32.0,96,29.69,4.0,WNW,11.5,-,N/A,,Overcast,290,2012-12-16 09:55:00
4:15 AM,32.9,32.0,96,29.69,4.0,WNW,9.2,-,N/A,,Overcast,300,2012-12-16 10:15:00
4:35 AM,32.9,32.0,96,29.70,4.0,WNW,9.2,-,N/A,,Overcast,300,2012-12-16 10:35:00
4:55 AM,32.9,32.0,96,29.70,4.0,WNW,9.2,-,N/A,,Overcast,300,2012-12-16 10:55:00
5:15 AM,32.9,32.0,96,29.70,3.0,WNW,10.4,-,N/A,,Overcast,300,2012-12-16 11:15:00
5:35 AM,32.4,32.0,99,29.70,2.0,NW,10.4,-,N/A,,Overcast,310,2012-12-16 11:35:00
5:55 AM,32.4,32.0,99,29.71,2.0,WNW,8.1,-,N/A,,Overcast,300,2012-12-16 11:55:00
6:15 AM,32.5,32.0,98,29.71,2.5,NW,8.1,-,N/A,,Overcast,310,2012-12-16 12:15:00
6:35 AM,32.5,31.8,97,29.72,4.0,NW,10.4,-,N/A,,Overcast,320,2012-12-16 12:35:00
6:55 AM,32.5,31.6,96,29.73,4.0,WNW,8.1,-,N/A,,Overcast,300,2012-12-16 12:55:00
7:15 AM,32.5,31.6,96,29.74,4.0,WNW,10.4,-,N/A,,Overcast,290,2012-12-16 13:15:00
7:35 AM,32.0,30.9,96,29.75,4.0,WNW,4.6,-,N/A,,Overcast,300,2012-12-16 13:35:00
7:55 AM,32.0,30.9,96,29.74,4.0,WNW,5.8,-,N/A,,Overcast,290,2012-12-16 13:55:00
8:35 AM,32.2,31.1,96,29.75,2.5,WNW,6.9,-,N/A,,Overcast,300,2012-12-16 14:35:00
8:55 AM,32.0,31.3,97,29.74,1.5,NW,6.9,-,N/A,,Overcast,310,2012-12-16 14:55:00
9:15 AM,32.0,31.1,96,29.75,2.0,WNW,8.1,-,N/A,,Overcast,290,2012-12-16 15:15:00
9:35 AM,32.4,31.3,96,29.76,2.0,WNW,8.1,-,N/A,,Overcast,290,2012-12-16 15:35:00
9:55 AM,32.4,30.6,93,29.76,2.5,WNW,8.1,-,N/A,,Overcast,300,2012-12-16 15:55:00
10:15 AM,32.5,31.1,94,29.76,2.0,WNW,9.2,-,N/A,,Overcast,300,2012-12-16 16:15:00
10:35 AM,32.7,31.1,94,29.76,2.5,NNW,8.1,-,N/A,,Overcast,330,2012-12-16 16:35:00
10:55 AM,33.1,30.9,92,29.76,2.5,NW,9.2,-,N/A,,Overcast,320,2012-12-16 16:55:00
11:15 AM,32.9,30.7,92,29.75,3.0,NNW,9.2,-,N/A,,Overcast,330,2012-12-16 17:15:00
11:35 AM,32.9,30.7,92,29.75,3.0,NW,9.2,-,N/A,,Overcast,320,2012-12-16 17:35:00
11:55 AM,33.1,30.2,89,29.74,4.0,NNW,9.2,-,N/A,,Overcast,340,2012-12-16 17:55:00
12:35 PM,33.8,29.8,85,29.73,7.0,NNW,9.2,-,N/A,,Overcast,340,2012-12-16 18:35:00
12:55 PM,34.0,30.2,86,29.72,7.0,North,11.5,-,N/A,,Mostly Cloudy,350,2012-12-16 18:55:00
1:15 PM,33.8,29.7,85,29.71,10.0,NNW,12.7,-,N/A,,Scattered Clouds,330,2012-12-16 19:15:00
1:35 PM,32.7,28.9,86,29.71,10.0,NNW,12.7,-,N/A,,Scattered Clouds,340,2012-12-16 19:35:00
1:55 PM,32.0,27.9,85,29.72,10.0,NNW,9.2,-,N/A,,Mostly Cloudy,330,2012-12-16 19:55:00
2:15 PM,31.6,27.1,83,29.72,10.0,North,8.1,-,N/A,,Mostly Cloudy,350,2012-12-16 20:15:00
2:35 PM,31.6,27.1,83,29.71,10.0,NNW,8.1,-,N/A,,Scattered Clouds,340,2012-12-16 20:35:00
2:55 PM,31.6,27.1,83,29.72,10.0,NNW,6.9,-,N/A,,Scattered Clouds,340,2012-12-16 20:55:00
3:15 PM,31.6,27.5,85,29.72,10.0,NNW,9.2,-,N/A,,Mostly Cloudy,330,2012-12-16 21:15:00
3:35 PM,31.1,27.3,86,29.72,10.0,NNW,8.1,-,N/A,,Overcast,330,2012-12-16 21:35:00
3:55 PM,31.1,27.1,85,29.74,10.0,NNW,8.1,-,N/A,,Overcast,340,2012-12-16 21:55:00
4:15 PM,30.9,27.0,85,29.74,10.0,NNW,8.1,-,N/A,,Overcast,340,2012-12-16 22:15:00
4:35 PM,30.4,26.8,86,29.74,10.0,NNW,8.1,-,N/A,,Overcast,330,2012-12-16 22:35:00
4:55 PM,30.2,26.6,86,29.75,10.0,NNW,9.2,-,N/A,,Overcast,330,2012-12-16 22:55:00
5:15 PM,30.2,27.0,88,29.76,10.0,NNW,10.4,-,N/A,,Overcast,330,2012-12-16 23:15:00
5:35 PM,30.2,27.1,88,29.77,10.0,NNW,8.1,-,N/A,,Overcast,330,2012-12-16 23:35:00
5:55 PM,30.0,26.4,86,29.77,10.0,NNW,9.2,-,N/A,,Overcast,330,2012-12-16 23:55:00
6:15 PM,29.8,26.2,86,29.78,10.0,NNW,8.1,-,N/A,,Overcast,330,2012-12-17 00:15:00
6:35 PM,29.8,26.2,86,29.78,10.0,NNW,8.1,-,N/A,,Overcast,330,2012-12-17 00:35:00
6:55 PM,30.0,26.6,87,29.78,10.0,NW,9.2,-,N/A,,Overcast,320,2012-12-17 00:55:00
7:15 PM,30.0,26.4,86,29.78,10.0,NNW,8.1,-,N/A,,Overcast,330,2012-12-17 01:15:00
7:35 PM,29.8,26.6,88,29.78,10.0,NNW,9.2,-,N/A,,Overcast,340,2012-12-17 01:35:00
7:55 PM,29.8,26.6,88,29.78,7.0,North,8.1,-,N/A,,Overcast,350,2012-12-17 01:55:00
8:15 PM,29.3,25.7,86,29.79,10.0,NNW,6.9,-,N/A,,Overcast,340,2012-12-17 02:15:00
8:35 PM,29.1,25.7,87,29.79,10.0,NNW,8.1,-,N/A,,Overcast,330,2012-12-17 02:35:00
8:55 PM,28.9,25.9,88,29.79,7.0,NNW,8.1,-,N/A,,Overcast,340,2012-12-17 02:55:00
9:15 PM,28.6,25.5,88,29.79,10.0,NNW,10.4,-,N/A,,Overcast,330,2012-12-17 03:15:00
9:35 PM,28.6,25.3,88,29.79,10.0,NNW,8.1,-,N/A,,Overcast,340,2012-12-17 03:35:00
9:55 PM,28.4,24.8,86,29.79,10.0,North,8.1,-,N/A,,Overcast,350,2012-12-17 03:55:00
10:15 PM,28.4,25.2,88,29.79,10.0,North,8.1,-,N/A,,Overcast,360,2012-12-17 04:15:00
10:35 PM,28.2,25.3,89,29.78,10.0,NNW,9.2,-,N/A,,Overcast,340,2012-12-17 04:35:00
10:55 PM,28.0,25.3,90,29.78,10.0,North,10.4,-,N/A,,Overcast,350,2012-12-17 04:55:00
11:15 PM,27.5,25.3,92,29.78,7.0,North,9.2,-,N/A,,Overcast,360,2012-12-17 05:15:00
11:35 PM,27.5,24.8,90,29.79,7.0,NNW,8.1,-,N/A,,Overcast,340,2012-12-17 05:35:00
11:55 PM,27.5,24.8,90,29.79,7.0,North,6.9,-,N/A,,Overcast,360,2012-12-17 05:55:00